TimeCST,TemperatureF,Dew PointF,Humidity,Sea Level PressureIn,VisibilityMPH,Wind Direction,Wind SpeedMPH,Gust SpeedMPH,PrecipitationIn,Events,Conditions,WindDirDegrees,DateUTC
12:15 AM,24.8,14.0,64,30.22,10.0,South,9.2,-,N/A,,Clear,180,2014-01-04 06:15:00
12:35 AM,26.6,14.0,59,30.22,10.0,South,11.5,17.3,N/A,,Clear,180,2014-01-04 06:35:00
12:55 AM,26.6,14.0,59,30.22,10.0,South,10.4,16.1,N/A,,Clear,190,2014-01-04 06:55:00
1:15 AM,26.6,14.0,59,30.23,10.0,South,10.4,-,N/A,,Clear,190,2014-01-04 07:15:00
1:35 AM,26.6,14.0,59,30.23,10.0,South,8.1,-,N/A,,Clear,190,2014-01-04 07:35:00
1:55 AM,24.8,14.0,64,30.22,10.0,South,10.4,-,N/A,,Clear,190,2014-01-04 07:55:00
2:15 AM,26.6,14.0,59,30.22,10.0,South,11.5,16.1,N/A,,Clear,180,2014-01-04 08:15:00
2:35 AM,26.6,14.0,59,30.21,10.0,South,11.5,17.3,N/A,,Clear,180,2014-01-04 08:35:00
2:55 AM,26.6,14.0,59,30.21,10.0,South,13.8,21.9,N/A,,Clear,190,2014-01-04 08:55:00
3:15 AM,26.6,14.0,59,30.20,10.0,South,11.5,19.6,N/A,,Clear,190,2014-01-04 09:15:00
3:35 AM,26.6,14.0,59,30.19,10.0,South,13.8,17.3,N/A,,Clear,180,2014-01-04 09:35:00
3:55 AM,26.6,14.0,59,30.19,10.0,South,10.4,21.9,N/A,,Clear,190,2014-01-04 09:55:00
4:15 AM,28.4,14.0,55,30.19,10.0,South,9.2,17.3,N/A,,Clear,190,2014-01-04 10:15:00
4:35 AM,28.4,14.0,55,30.19,10.0,SSW,9.2,17.3,N/A,,Clear,200,2014-01-04 10:35:00
4:55 AM,28.4,14.0,55,30.20,10.0,SSW,12.7,19.6,N/A,,Clear,200,2014-01-04 10:55:00
5:15 AM,28.4,14.0,55,30.20,10.0,SSW,9.2,17.3,N/A,,Clear,200,2014-01-04 11:15:00
5:35 AM,28.4,14.0,55,30.20,10.0,South,11.5,18.4,N/A,,Clear,190,2014-01-04 11:35:00
5:55 AM,28.4,14.0,55,30.20,10.0,SSW,9.2,17.3,N/A,,Clear,200,2014-01-04 11:55:00
6:15 AM,28.4,15.8,59,30.19,10.0,South,11.5,17.3,N/A,,Clear,190,2014-01-04 12:15:00
6:35 AM,28.4,15.8,59,30.19,10.0,South,9.2,17.3,N/A,,Clear,180,2014-01-04 12:35:00
6:55 AM,28.4,15.8,59,30.18,10.0,South,12.7,18.4,N/A,,Clear,180,2014-01-04 12:55:00
7:15 AM,28.4,15.8,59,30.19,10.0,South,15.0,19.6,N/A,,Clear,190,2014-01-04 13:15:00
7:35 AM,28.4,15.8,59,30.18,10.0,South,12.7,21.9,N/A,,Clear,180,2014-01-04 13:35:00
7:55 AM,28.4,15.8,59,30.18,10.0,South,16.1,23.0,N/A,,Clear,190,2014-01-04 13:55:00
8:15 AM,30.2,15.8,55,30.18,10.0,South,12.7,20.7,N/A,,Clear,190,2014-01-04 14:15:00
8:35 AM,30.2,15.8,55,30.18,10.0,South,16.1,21.9,N/A,,Clear,190,2014-01-04 14:35:00
8:55 AM,32.0,17.6,55,30.18,10.0,South,18.4,25.3,N/A,,Clear,190,2014-01-04 14:55:00
9:15 AM,32.0,17.6,55,30.18,10.0,South,17.3,25.3,N/A,,Clear,190,2014-01-04 15:15:00
9:35 AM,32.0,17.6,55,30.19,10.0,South,15.0,24.2,N/A,,Clear,190,2014-01-04 15:35:00
9:55 AM,33.8,17.6,52,30.20,10.0,SSW,17.3,23.0,N/A,,Clear,200,2014-01-04 15:55:00
10:15 AM,33.8,17.6,52,30.18,10.0,SSW,23.0,27.6,N/A,,Clear,200,2014-01-04 16:15:00
10:35 AM,35.6,19.4,52,30.17,10.0,South,20.7,28.8,N/A,,Clear,190,2014-01-04 16:35:00
10:55 AM,35.6,17.6,48,30.16,10.0,SSW,16.1,25.3,N/A,,Clear,200,2014-01-04 16:55:00
11:15 AM,37.4,19.4,48,30.14,10.0,SSW,16.1,28.8,N/A,,Clear,200,2014-01-04 17:15:00
11:35 AM,37.4,17.6,45,30.13,10.0,SSW,21.9,26.5,N/A,,Clear,200,2014-01-04 17:35:00
11:55 AM,37.4,17.6,45,30.12,10.0,SSW,16.1,27.6,N/A,,Clear,200,2014-01-04 17:55:00
12:15 PM,39.2,19.4,45,30.11,10.0,SSW,13.8,-,N/A,,Clear,200,2014-01-04 18:15:00
12:35 PM,41.0,21.2,45,30.10,10.0,South,12.7,18.4,N/A,,Clear,190,2014-01-04 18:35:00
12:55 PM,41.0,19.4,42,30.09,10.0,South,11.5,20.7,N/A,,Clear,190,2014-01-04 18:55:00
1:15 PM,41.0,21.2,45,30.08,10.0,South,11.5,18.4,N/A,,Clear,180,2014-01-04 19:15:00
1:35 PM,41.0,19.4,42,30.07,10.0,South,12.7,-,N/A,,Clear,180,2014-01-04 19:35:00
1:55 PM,42.8,19.4,39,30.07,10.0,South,12.7,18.4,N/A,,Clear,190,2014-01-04 19:55:00
2:15 PM,42.8,19.4,39,30.07,10.0,South,8.1,17.3,N/A,,Clear,190,2014-01-04 20:15:00
2:35 PM,42.8,19.4,39,30.06,10.0,South,12.7,20.7,N/A,,Scattered Clouds,190,2014-01-04 20:35:00
2:55 PM,42.8,19.4,39,30.06,10.0,South,10.4,17.3,N/A,,Scattered Clouds,180,2014-01-04 20:55:00
3:15 PM,42.8,19.4,39,30.03,10.0,South,13.8,19.6,N/A,,Mostly Cloudy,170,2014-01-04 21:15:00
3:35 PM,42.8,21.2,42,30.03,10.0,SSE,12.7,-,N/A,,Overcast,160,2014-01-04 21:35:00
3:55 PM,42.8,23.0,46,30.03,10.0,SSE,12.7,16.1,N/A,,Overcast,160,2014-01-04 21:55:00
4:15 PM,42.8,21.2,42,30.02,10.0,SSE,11.5,18.4,N/A,,Overcast,150,2014-01-04 22:15:00
4:35 PM,42.8,21.2,42,30.01,10.0,SSE,12.7,18.4,N/A,,Overcast,160,2014-01-04 22:35:00
4:55 PM,41.0,21.2,45,30.00,10.0,SSE,13.8,17.3,N/A,,Overcast,160,2014-01-04 22:55:00
5:15 PM,41.0,21.2,45,30.00,10.0,SSE,13.8,20.7,N/A,,Mostly Cloudy,160,2014-01-04 23:15:00
5:35 PM,41.0,19.4,42,30.00,10.0,SSE,13.8,20.7,N/A,,Mostly Cloudy,160,2014-01-04 23:35:00
5:55 PM,41.0,19.4,42,29.99,10.0,South,13.8,20.7,N/A,,Scattered Clouds,170,2014-01-04 23:55:00
6:15 PM,41.0,19.4,42,29.99,10.0,SSE,16.1,21.9,N/A,,Clear,160,2014-01-05 00:15:00
6:35 PM,41.0,21.2,45,30.00,10.0,SSE,13.8,18.4,N/A,,Mostly Cloudy,160,2014-01-05 00:35:00
6:55 PM,41.0,21.2,45,29.99,10.0,South,12.7,18.4,N/A,,Overcast,170,2014-01-05 00:55:00
7:15 PM,42.8,21.2,42,29.99,10.0,South,13.8,23.0,N/A,,Overcast,170,2014-01-05 01:15:00
7:35 PM,42.8,21.2,42,29.99,10.0,SSE,10.4,20.7,N/A,,Overcast,160,2014-01-05 01:35:00
7:55 PM,41.0,21.2,45,29.99,10.0,SSE,9.2,17.3,N/A,,Overcast,160,2014-01-05 01:55:00
8:15 PM,42.8,23.0,46,30.01,10.0,SSW,8.1,-,N/A,,Overcast,200,2014-01-05 02:15:00
8:35 PM,42.8,23.0,46,30.01,10.0,South,9.2,-,N/A,,Overcast,190,2014-01-05 02:35:00
8:55 PM,42.8,24.8,49,30.02,10.0,SSW,8.1,-,N/A,,Overcast,200,2014-01-05 02:55:00
9:15 PM,42.8,26.6,53,30.02,10.0,South,5.8,-,N/A,,Overcast,190,2014-01-05 03:15:00
9:35 PM,41.0,26.6,57,30.02,10.0,South,4.6,-,N/A,,Overcast,180,2014-01-05 03:35:00
9:55 PM,41.0,26.6,57,30.02,10.0,South,5.8,-,N/A,,Overcast,170,2014-01-05 03:55:00
10:15 PM,41.0,28.4,61,30.02,10.0,South,6.9,-,N/A,,Overcast,170,2014-01-05 04:15:00
10:35 PM,41.0,30.2,65,30.02,10.0,South,6.9,-,N/A,,Overcast,180,2014-01-05 04:35:00
10:55 PM,42.8,32.0,66,30.01,10.0,South,9.2,-,N/A,,Overcast,170,2014-01-05 04:55:00
11:15 PM,42.8,32.0,66,30.00,10.0,South,12.7,16.1,N/A,,Overcast,170,2014-01-05 05:15:00
11:35 PM,42.8,32.0,66,30.00,10.0,South,6.9,-,N/A,,Overcast,180,2014-01-05 05:35:00
11:55 PM,42.8,33.8,70,30.00,10.0,South,9.2,-,N/A,,Overcast,180,2014-01-05 05:55:00